Gaylord, MI

7:25 AM EDT on April 30, 2017 (GMT -0400)
Otsego County

Weather History for KGLR - May, 2013

Change the Weather History Date:

Sunday, May 5, 2013

  Actual Average Record
Temperature  
Mean Temperature 55 °F -  
Max Temperature 75 °F 63 °F 85 °F (1959)
Min Temperature 37 °F 38 °F 22 °F (1979)
Degree Days  
Heating Degree Days 10    
Growing Degree Days 5 (Base 50)    
Moisture  
Dew Point 32 °F    
Average Humidity 40    
Maximum Humidity 79    
Minimum Humidity 16    
Precipitation  
Precipitation 0.00 in - - ()
Sea Level Pressure  
Sea Level Pressure 30.11 in    
Wind  
Wind Speed 4 mph (SE)    
Max Wind Speed 16 mph    
Max Gust Speed 22 mph    
Visibility 10 miles    
Events      
Averages and records for this station are not official NWS values.
T = Trace of Precipitation, MM = Missing Value Source: NWS Daily Summary

Daily Weather History Graph

Daily Weather History Graph

Search for Another Location

Airport or City:

Trip Planner

Search our weather history database for the weather conditions in past years. The results will help you decide how hot, cold, wet, or windy it might be!

Date:

Astronomy

May. 05, 2013 Rise Set
Actual Time 6:22 AM EDT 8:49 PM EDT
Civil Twilight 5:49 AM EDT 9:22 PM EDT
Nautical Twilight 5:08 AM EDT 10:04 PM EDT
Astronomical Twilight 4:21 AM EDT 10:50 PM EDT
Moon 4:03 AM EDT (5/5) 4:38 PM EDT (5/5)
Length of Visible Light 15h 33m
Length of Day
14h 27m
Waning Crescent, 18% of the Moon is Illuminated
May 5
Waning Crescent
May 9
New
May 18
First Quarter
May 25
Full
May 31
Last Quarter

Hourly Weather History & Observations

Time (EDT) Temp. Dew Point Humidity Pressure Visibility Wind Dir Wind Speed Gust Speed Precip Events Conditions
12:53 AM 50.0 °F 28.0 °F 43% 30.15 in 10.0 mi SE 3.5 mph - N/A   Clear
1:53 AM 48.9 °F 28.9 °F 46% 30.14 in 10.0 mi SE 3.5 mph - N/A   Clear
2:53 AM 46.9 °F 30.0 °F 52% 30.13 in 10.0 mi SSE 4.6 mph - N/A   Clear
3:53 AM 42.1 °F 32.0 °F 67% 30.13 in 10.0 mi Calm Calm - N/A   Clear
4:53 AM 39.0 °F 32.0 °F 76% 30.14 in 10.0 mi Calm Calm - N/A   Clear
5:53 AM 39.0 °F 33.1 °F 79% 30.14 in 10.0 mi Calm Calm - N/A   Clear
6:53 AM 37.9 °F 32.0 °F 79% 30.16 in 10.0 mi Calm Calm - N/A   Clear
7:53 AM 45.0 °F 36.0 °F 71% 30.16 in 10.0 mi Calm Calm - N/A   Clear
8:53 AM 57.0 °F 35.1 °F 44% 30.15 in 10.0 mi Calm Calm - N/A   Clear
9:53 AM 64.0 °F 36.0 °F 35% 30.15 in 10.0 mi SSE 5.8 mph - N/A   Clear
10:53 AM 68.0 °F 35.1 °F 30% 30.14 in 10.0 mi Variable 5.8 mph - N/A   Clear
11:53 AM 71.1 °F 36.0 °F 28% 30.14 in 10.0 mi ESE 10.4 mph - N/A   Clear
12:53 PM 73.0 °F 33.1 °F 23% 30.12 in 10.0 mi South 11.5 mph - N/A   Clear
1:53 PM 73.9 °F 34.0 °F 23% 30.10 in 10.0 mi SSE 11.5 mph - N/A   Clear
2:53 PM 73.9 °F 33.1 °F 22% 30.09 in 10.0 mi SE 12.7 mph 20.7 mph N/A   Clear
3:53 PM 73.9 °F 32.0 °F 21% 30.08 in 10.0 mi Variable 5.8 mph 17.3 mph N/A   Clear
4:53 PM 73.9 °F 28.0 °F 18% 30.06 in 10.0 mi Variable 6.9 mph - N/A   Clear
5:53 PM 73.9 °F 25.0 °F 16% 30.06 in 10.0 mi SSE 8.1 mph 17.3 mph N/A   Clear
6:53 PM 72.0 °F 23.0 °F 16% 30.06 in 10.0 mi SSE 10.4 mph - N/A   Clear
7:53 PM 69.1 °F 28.0 °F 22% 30.07 in 10.0 mi SSE 16.1 mph 21.9 mph N/A   Clear
8:53 PM 64.9 °F 30.0 °F 27% 30.08 in 10.0 mi SE 8.1 mph - N/A   Clear
9:53 PM 64.0 °F 30.9 °F 29% 30.09 in 10.0 mi SE 3.5 mph - N/A   Clear
10:53 PM 59.0 °F 32.0 °F 36% 30.09 in 10.0 mi Calm Calm - N/A   Clear
11:53 PM 53.1 °F 35.1 °F 50% 30.10 in 10.0 mi Calm Calm - N/A   Clear